Wind_Speed
10 9 10 10 10 10 10 11 11 12 13 13 13 13 14 13 13 13 14 15 15 15 16 17 19 21 22 23 24 25 26 26 26 27 28 28 29 30 30 31 32 32 32 33
9 9 10 9 9 9 10 11 12 13 13 13 13 14 14 14 13 13 14 14 16 17 17 18 19 20 21 22 23 24 25 26 26 27 27 28 28 29 30 30 31 31 31 31
8 8 8 8 8 9 10 11 12 13 13 14 14 14 14 14 14 14 13 14 15 16 17 18 19 20 21 22 22 23 24 25 25 25 26 26 27 28 28 28 29 29 29 29
7 7 7 7 8 9 10 11 11 12 12 13 13 13 13 13 13 13 13 14 14 15 17 18 18 19 20 21 21 22 23 23 24 24 25 25 26 26 26 26 26 26 26 27
4 5 5 6 8 9 9 9 10 11 11 11 12 12 12 12 12 13 13 14 15 16 17 17 18 18 19 20 20 21 21 22 23 23 23 23 24 24 24 24 24 25 25 25
4 4 5 7 8 8 9 9 9 9 10 11 11 11 11 12 12 12 13 15 15 16 17 18 18 19 19 19 19 20 20 21 22 22 22 22 22 22 22 22 23 23 23 23
4 3 5 6 7 8 8 9 9 9 10 11 11 11 11 11 11 12 13 13 14 15 15 15 16 16 16 17 17 17 18 19 20 20 20 20 20 20 21 21 21 21 21 20
2 3 5 6 6 8 9 10 10 10 10 10 10 10 10 10 10 10 10 10 11 12 12 13 13 14 14 15 15 16 17 17 18 18 18 18 18 19 19 19 19 18 18 17
2 3 4 6 7 9 10 10 10 10 10 10 10 9 9 8 8 8 8 9 9 10 10 11 12 13 13 14 15 16 16 16 17 18 18 18 18 18 17 17 16 16 15 15
1 3 5 6 7 9 10 10 10 10 10 10 10 9 8 7 6 6 6 7 7 8 9 10 11 11 12 12 13 14 15 16 17 17 17 17 17 16 15 14 14 14 13 13
1 3 5 6 8 10 10 10 11 10 10 10 10 9 9 8 7 6 6 7 7 8 8 9 10 11 11 12 12 13 13 14 14 14 14 14 13 13 12 11 11 11 11 11
2 3 5 7 9 10 11 11 11 11 11 11 10 10 10 9 8 8 7 7 7 7 8 9 9 9 9 9 10 10 11 11 11 11 11 11 10 9 9 9 9 9 10 10
2 3 5 7 8 10 11 12 12 12 12 11 11 11 11 10 10 9 8 8 8 8 9 9 8 8 8 8 8 8 9 9 9 9 9 8 8 8 7 7 8 8 9 9
2 3 5 6 8 10 11 12 13 12 12 12 12 12 12 12 11 10 10 10 10 9 9 9 8 8 8 8 8 8 8 8 8 8 8 8 7 7 7 7 7 7 7 7
4 4 5 7 8 10 11 12 13 13 13 12 12 13 13 13 12 12 12 12 12 11 11 10 10 9 8 8 8 9 8 8 8 8 8 8 8 7 7 7 6 6 6 6
4 5 6 7 8 10 11 12 13 13 14 14 14 14 14 14 14 14 13 14 14 14 13 12 11 10 10 9 10 10 10 10 10 10 9 9 8 8 8 7 6 6 6 6
5 5 6 7 8 10 11 12 13 14 14 14 14 15 15 15 15 15 15 16 16 16 15 15 14 13 12 11 11 11 11 11 11 11 10 10 9 9 8 8 7 7 7 7
6 6 6 7 9 10 11 12 13 14 14 14 14 15 15 16 16 17 17 17 17 17 17 17 16 15 14 14 13 13 12 12 12 12 12 12 11 11 10 9 8 8 8 8
7 6 7 8 8 9 10 11 13 14 14 15 15 15 15 16 16 17 17 18 18 18 19 18 18 17 16 16 15 15 14 14 14 14 14 13 13 12 12 11 10 10 10 9
7 6 7 8 8 9 10 11 12 13 14 14 14 15 16 16 16 17 17 18 19 19 19 19 19 18 18 17 17 17 17 16 16 15 15 14 14 13 13 12 12 11 11 11
7 6 6 7 8 9 9 10 11 12 13 13 14 15 15 16 17 17 17 18 19 19 20 20 20 19 18 18 18 18 18 18 17 17 16 16 15 14 14 14 13 13 13 12
8 7 6 6 7 8 9 9 10 11 12 12 13 14 14 15 16 16 17 17 18 19 19 19 19 19 19 19 19 18 18 18 18 18 17 17 16 15 15 15 14 14 14 14
9 7 6 5 5 6 7 8 9 10 10 11 12 12 13 14 14 15 15 16 17 17 18 18 19 19 19 19 19 19 18 18 18 18 17 17 17 16 16 16 15 15 14 14
10 7 6 4 4 4 5 6 7 8 9 9 10 11 11 12 13 13 14 14 15 16 17 17 17 18 18 18 18 18 18 18 17 17 17 17 17 16 16 16 15 15 15 15
10 8 6 4 3 3 3 4 5 6 7 8 8 9 10 11 11 12 12 13 13 14 15 16 16 16 17 17 17 18 17 17 17 17 17 16 16 16 16 15 15 15 15 15
11 9 7 5 3 1 2 3 4 5 5 6 7 8 8 9 10 10 11 11 11 12 13 14 15 15 15 16 16 16 16 16 16 16 16 16 15 15 15 15 14 14 14 14
12 10 8 6 4 2 1 1 3 4 4 5 6 6 7 8 8 8 9 9 10 10 11 12 12 13 14 14 15 15 15 15 15 15 14 14 14 14 14 14 13 13 13 13
Wind_Direction
289 288 283 285 281 277 279 282 285 287 291 295 293 291 287 286 285 279 276 271 268 263 262 262 262 263 263 264 264 264 264 266 267 268 270 271 272 273 274 275 277 279 280 281
284 283 284 290 284 283 284 285 289 290 290 294 292 291 289 288 287 282 278 271 266 264 264 263 263 264 265 266 266 266 267 268 269 270 271 273 274 275 276 278 279 281 282 283
287 286 284 286 287 285 292 295 292 292 292 291 291 290 287 286 284 282 279 274 271 269 267 266 269 269 268 269 270 271 273 274 274 275 275 275 276 276 277 279 281 282 282 283
285 284 283 294 297 297 297 296 296 294 292 293 293 293 288 284 281 278 273 270 267 267 269 271 273 274 274 275 275 275 276 276 278 278 277 278 279 280 281 282 283 284 284 285
299 303 309 309 308 309 309 303 301 299 299 299 299 298 293 289 281 277 275 274 271 270 272 275 277 279 281 279 276 275 276 279 281 282 282 281 281 282 283 283 285 287 288 288
305 312 321 326 318 317 317 313 312 310 312 312 309 305 298 292 284 278 275 276 275 277 279 279 278 279 281 281 279 278 279 281 283 284 285 284 283 283 285 288 290 291 292 292
296 318 328 333 332 334 330 329 327 325 325 323 318 312 305 295 288 283 281 280 280 280 282 282 282 282 281 281 281 282 281 282 284 287 287 286 286 287 289 291 292 293 294 294
295 324 332 342 348 350 346 343 340 337 335 332 328 321 315 308 299 294 294 292 289 287 287 286 286 285 284 284 285 286 287 287 288 290 290 290 291 292 293 294 294 296 296 297
323 348 358 357 359 358 354 350 349 348 346 344 342 338 329 322 314 306 302 301 298 295 296 296 295 291 289 288 289 289 290 290 292 293 294 294 295 295 295 296 296 297 299 301
6 11 8 8 6 3 1 0 0 359 359 360 357 356 352 347 340 331 321 316 314 312 311 308 305 302 298 296 295 295 297 297 298 298 297 296 296 296 297 298 297 299 302 304
51 27 28 19 13 9 8 10 10 11 12 11 10 10 8 5 1 354 340 332 327 324 321 317 312 307 302 299 300 301 303 303 305 305 304 303 301 301 301 300 301 302 306 309
60 40 34 27 22 19 18 18 17 17 17 18 18 18 17 14 12 10 3 354 349 345 340 333 328 322 316 313 311 312 313 313 314 314 314 313 311 309 308 306 307 309 313 315
89 56 44 32 27 26 25 23 23 24 25 27 29 28 26 25 23 21 17 10 3 356 351 346 341 337 335 333 327 324 324 325 326 327 328 328 326 323 321 317 314 315 320 323
112 74 53 40 34 30 29 29 30 31 33 36 36 35 33 32 31 30 27 21 14 7 3 1 357 354 354 353 351 346 342 341 343 346 347 344 342 339 336 331 328 328 332 335
120 86 62 48 40 37 35 34 35 37 39 40 41 41 40 38 38 36 32 27 24 20 16 13 13 12 10 10 11 11 10 8 6 4 1 358 357 355 351 346 343 344 344 346
123 90 66 54 47 44 41 39 39 41 44 45 46 45 43 43 42 41 37 34 32 30 28 27 28 30 32 31 30 28 27 24 20 18 16 15 12 8 6 4 3 3 2 2
125 97 74 63 56 51 47 44 44 46 47 48 48 48 47 47 46 44 41 40 39 37 37 38 40 41 41 39 37 34 32 32 31 29 29 27 25 21 18 17 18 19 19 18
128 103 82 70 62 56 51 48 48 49 50 50 50 50 49 49 48 47 46 45 44 43 43 44 44 43 44 43 41 40 38 37 36 35 34 32 31 30 30 30 31 30 29 27
132 110 89 77 68 60 56 53 52 52 52 52 52 51 50 50 50 48 48 48 48 47 46 46 47 47 47 46 44 43 43 42 41 40 38 37 38 39 38 39 39 39 38 37
137 117 97 83 72 65 60 57 55 55 55 55 54 53 52 52 51 50 50 49 49 48 47 48 48 48 49 49 48 46 45 44 44 43 42 42 42 43 44 44 44 44 44 43
144 127 107 90 77 69 63 60 58 58 57 56 56 55 54 52 52 51 50 50 49 49 48 48 48 48 48 49 48 48 47 47 47 46 46 46 47 46 46 47 47 48 47 46
155 139 121 102 84 72 65 60 58 58 57 55 55 54 52 51 50 50 49 49 48 48 48 48 47 47 47 47 47 47 48 48 48 48 48 48 48 49 49 49 49 49 48 47
164 152 135 116 94 75 65 60 57 55 54 52 51 50 49 48 47 47 47 46 46 46 47 47 47 46 46 45 45 46 46 46 46 47 47 47 48 48 48 48 48 47 47 46
172 166 154 135 106 80 66 58 53 51 49 47 46 45 44 44 45 44 44 43 43 44 44 45 44 44 44 43 43 43 44 44 45 46 45 45 46 46 46 46 46 46 45 44
182 179 172 159 133 93 67 55 48 44 42 41 40 38 38 39 40 40 39 39 39 40 41 41 41 40 40 40 40 41 41 41 42 43 43 43 43 44 44 44 45 44 43 43
188 187 186 182 172 137 71 45 36 32 30 29 30 29 28 30 32 33 33 32 32 34 35 35 34 34 34 34 35 36 36 36 37 38 39 39 39 40 40 40 40 40 40 40
195 196 198 199 202 207 251 346 2 7 10 11 12 13 14 16 18 21 22 22 22 23 25 27 27 27 27 28 29 29 29 29 29 30 32 33 33 33 33 33 32 32 32 32
Height
5744 5743 5742 5742 5741 5741 5740 5740 5740 5740 5739 5738 5738 5737 5736 5735 5734 5734 5733 5733 5733 5733 5733 5734 5734 5735 5735 5736 5737 5737 5738 5738 5738 5738 5738 5738 5738 5738 5738 5737 5737 5736 5735 5734
5742 5741 5740 5739 5739 5738 5738 5738 5737 5736 5736 5735 5734 5733 5732 5731 5730 5729 5729 5728 5728 5728 5728 5728 5729 5729 5729 5729 5730 5730 5730 5730 5730 5730 5730 5730 5730 5729 5729 5728 5728 5727 5725 5724
5740 5739 5738 5738 5737 5737 5736 5735 5734 5733 5733 5731 5730 5728 5727 5726 5725 5725 5724 5724 5723 5723 5723 5723 5723 5723 5723 5722 5722 5722 5723 5722 5722 5722 5722 5722 5721 5721 5720 5719 5719 5718 5717 5716
5738 5738 5737 5739 5736 5734 5734 5732 5731 5730 5729 5727 5726 5724 5723 5722 5721 5720 5720 5719 5718 5718 5718 5717 5717 5717 5716 5716 5716 5716 5715 5715 5715 5714 5714 5714 5713 5713 5712 5712 5711 5710 5709 5708
5737 5736 5736 5736 5734 5733 5731 5730 5728 5727 5725 5723 5722 5720 5719 5718 5717 5716 5715 5714 5714 5713 5713 5712 5712 5711 5710 5710 5710 5710 5709 5708 5708 5707 5707 5707 5706 5706 5705 5704 5704 5703 5701 5700
5736 5735 5735 5735 5733 5730 5730 5728 5726 5724 5722 5720 5718 5717 5716 5714 5712 5711 5711 5710 5709 5709 5708 5707 5707 5706 5705 5705 5704 5704 5703 5702 5702 5701 5701 5700 5700 5699 5698 5697 5696 5696 5694 5693
5735 5734 5734 5733 5731 5729 5728 5727 5723 5721 5719 5717 5715 5714 5712 5710 5708 5707 5706 5706 5705 5704 5704 5703 5702 5701 5700 5700 5699 5699 5698 5697 5697 5696 5695 5694 5694 5693 5692 5691 5691 5690 5688 5687
5734 5734 5735 5731 5729 5728 5727 5723 5721 5718 5716 5714 5712 5710 5708 5706 5705 5704 5703 5702 5701 5700 5699 5698 5697 5697 5696 5695 5695 5694 5694 5693 5692 5691 5690 5689 5688 5687 5687 5686 5685 5684 5682 5681
5735 5735 5733 5730 5729 5727 5724 5722 5719 5717 5714 5712 5710 5708 5706 5704 5702 5701 5700 5699 5698 5697 5696 5695 5694 5693 5692 5691 5691 5690 5689 5688 5687 5686 5685 5684 5683 5682 5682 5681 5679 5678 5677 5676
5734 5733 5731 5730 5728 5726 5724 5721 5718 5716 5713 5711 5709 5706 5704 5702 5701 5699 5698 5697 5696 5695 5694 5692 5691 5690 5689 5688 5687 5686 5685 5684 5683 5682 5681 5680 5678 5677 5676 5676 5675 5674 5673 5672
5733 5733 5731 5730 5728 5726 5723 5721 5718 5715 5713 5710 5708 5706 5704 5702 5700 5699 5697 5696 5695 5694 5692 5691 5689 5687 5686 5685 5684 5683 5681 5680 5679 5678 5677 5675 5674 5673 5672 5672 5671 5670 5669 5668
5734 5733 5732 5730 5728 5726 5724 5721 5718 5716 5713 5711 5708 5706 5704 5702 5700 5698 5697 5696 5694 5692 5691 5689 5687 5685 5684 5683 5681 5680 5679 5678 5676 5675 5674 5672 5671 5670 5669 5669 5668 5667 5666 5665
5733 5733 5731 5730 5729 5727 5724 5722 5719 5717 5714 5711 5709 5707 5705 5702 5700 5699 5697 5695 5694 5692 5690 5688 5686 5684 5682 5681 5679 5678 5677 5676 5675 5673 5672 5670 5669 5668 5667 5667 5666 5665 5664 5663
5733 5733 5732 5731 5729 5727 5725 5723 5720 5717 5715 5713 5710 5708 5706 5704 5702 5700 5698 5696 5694 5692 5690 5688 5685 5684 5682 5680 5678 5677 5676 5674 5673 5672 5670 5669 5668 5667 5666 5665 5664 5663 5662 5661
5733 5733 5733 5731 5730 5728 5726 5724 5722 5719 5717 5714 5712 5710 5708 5706 5703 5701 5699 5697 5695 5692 5690 5687 5685 5683 5682 5680 5678 5677 5675 5674 5672 5671 5670 5668 5667 5666 5665 5664 5663 5662 5662 5661
5734 5733 5733 5732 5731 5729 5728 5726 5723 5721 5719 5716 5714 5712 5710 5708 5706 5703 5701 5699 5696 5693 5691 5688 5686 5684 5682 5681 5679 5677 5676 5674 5673 5671 5670 5668 5667 5666 5665 5664 5663 5662 5661 5660
5734 5734 5733 5733 5732 5730 5729 5727 5725 5723 5721 5719 5717 5715 5713 5710 5708 5706 5703 5701 5698 5695 5692 5690 5688 5686 5684 5682 5681 5679 5677 5676 5674 5672 5670 5669 5668 5666 5665 5664 5663 5663 5662 5661
5734 5734 5734 5734 5733 5732 5730 5729 5727 5725 5723 5721 5719 5717 5715 5713 5711 5709 5706 5703 5701 5698 5695 5693 5690 5688 5686 5685 5683 5681 5679 5677 5676 5674 5672 5670 5669 5668 5666 5665 5664 5663 5663 5662
5734 5735 5735 5734 5734 5733 5732 5731 5729 5727 5726 5724 5722 5720 5718 5716 5714 5712 5709 5707 5704 5701 5699 5696 5693 5691 5689 5687 5685 5684 5682 5680 5678 5676 5674 5673 5671 5669 5668 5667 5666 5665 5664 5663
5735 5735 5735 5735 5735 5734 5734 5732 5731 5730 5728 5726 5725 5723 5721 5719 5717 5715 5713 5710 5708 5705 5702 5700 5697 5695 5693 5691 5689 5687 5685 5683 5681 5679 5677 5675 5674 5672 5670 5669 5668 5667 5666 5664
5735 5736 5736 5736 5736 5736 5735 5734 5733 5732 5731 5729 5728 5726 5724 5722 5720 5718 5716 5714 5711 5709 5706 5704 5701 5699 5697 5695 5693 5690 5688 5686 5684 5682 5680 5679 5677 5675 5674 5672 5671 5669 5668 5667
5735 5736 5736 5737 5737 5737 5736 5736 5735 5734 5733 5731 5730 5728 5727 5725 5723 5721 5719 5717 5715 5712 5710 5708 5706 5703 5701 5699 5697 5694 5692 5690 5688 5686 5684 5682 5680 5679 5677 5675 5674 5672 5671 5669
5735 5736 5737 5737 5738 5738 5738 5737 5736 5736 5735 5734 5732 5731 5729 5728 5726 5724 5722 5721 5718 5716 5714 5712 5710 5707 5705 5703 5700 5698 5696 5694 5692 5690 5688 5686 5684 5682 5680 5679 5677 5675 5674 5672
5734 5735 5737 5737 5738 5738 5738 5738 5738 5737 5736 5735 5734 5733 5732 5730 5728 5727 5725 5723 5721 5719 5717 5715 5713 5711 5709 5707 5704 5702 5700 5698 5696 5693 5691 5690 5688 5686 5684 5682 5680 5678 5677 5675
5733 5735 5736 5737 5738 5738 5738 5738 5738 5738 5737 5737 5736 5735 5733 5732 5731 5729 5727 5726 5724 5722 5720 5718 5716 5714 5712 5710 5708 5705 5703 5701 5699 5697 5695 5693 5691 5689 5687 5685 5683 5681 5680 5678
5732 5734 5735 5736 5737 5738 5738 5738 5738 5738 5738 5737 5736 5736 5734 5733 5732 5731 5729 5728 5726 5724 5722 5720 5719 5717 5715 5713 5711 5708 5706 5704 5702 5700 5698 5696 5694 5692 5690 5688 5686 5684 5683 5681
5730 5732 5734 5735 5736 5737 5737 5738 5738 5738 5738 5737 5737 5736 5735 5734 5733 5732 5730 5729 5728 5726 5724 5723 5721 5719 5717 5715 5713 5711 5709 5707 5705 5703 5701 5699 5697 5695 5693 5691 5689 5687 5685 5683